EW1994 Weather Reports


time (UTC)temp
C
wind
direction
speed
KPH
gust
KPH
rain 1hr
cm
rain 24hr
cm
rain mn
cm
humidity
%
barometer
mb
20260507141535 9 128 0.0 0.0 0.00 0.00 0.00 90 1021.1
20260507140010 9 128 0.0 0.0 0.00 0.00 0.00 91 1021.1
20260507134517 9 128 0.0 0.0 0.00 0.00 0.00 91 1021.0
20260507133020 9 128 0.0 0.0 0.00 0.00 0.00 91 1020.9
20260507131523 8 128 0.0 0.0 0.00 0.00 0.00 91 1020.9
20260507130037 8 128 0.0 0.0 0.00 0.00 0.00 91 1020.8
20260507124512 8 128 0.0 0.0 0.00 0.00 0.00 91 1020.8
20260507123018 8 128 0.0 0.0 0.00 0.00 0.00 91 1020.9
20260507121520 8 128 0.0 0.0 0.00 0.00 0.00 91 1021.1
20260507120024 8 128 0.0 0.0 0.00 0.00 0.00 91 1021.1
20260507114529 8 128 0.0 0.0 0.00 0.00 0.00 90 1021.2
20260507113011 8 128 0.0 0.0 0.00 0.00 0.00 90 1021.3
20260507111520 9 128 0.0 0.0 0.00 0.00 0.00 90 1021.4
20260507110022 9 128 0.0 0.0 0.00 0.00 0.00 89 1021.5
20260507104525 10 128 0.0 0.0 0.00 0.00 0.00 89 1021.4
20260507103028 10 128 0.0 0.0 0.00 0.00 0.00 89 1021.4
20260507101516 10 197 0.0 3.2 0.00 0.00 0.00 89 1021.4
20260507100025 10 173 0.0 0.0 0.00 0.00 0.00 89 1021.6
20260507094525 10 199 0.0 0.0 0.00 0.00 0.00 89 1021.6
20260507093024 10 199 0.0 3.2 0.00 0.00 0.00 89 1021.6
20260507091533 10 182 0.0 3.2 0.00 0.00 0.00 90 1021.6
20260507090017 10 178 0.0 3.2 0.00 0.00 0.00 89 1021.6
20260507084521 10 236 0.0 3.2 0.00 0.00 0.00 90 1021.6
20260507083025 10 163 0.0 6.4 0.00 0.00 0.00 90 1021.6
20260507081530 10 236 0.0 0.0 0.00 0.00 0.00 90 1021.5
20260507080015 10 148 0.0 3.2 0.00 0.00 0.00 91 1021.4
20260507074516 10 148 0.0 1.6 0.00 0.00 0.00 90 1021.4
20260507073006 9 148 0.0 0.0 0.00 0.00 0.00 90 1021.4
20260507071505 10 148 0.0 0.0 0.00 0.00 0.00 90 1021.2
20260507070013 10 148 0.0 0.0 0.00 0.00 0.00 90 1021.3
20260507064528 10 148 0.0 0.0 0.00 0.00 0.00 89 1021.0
20260507063020 10 148 0.0 0.0 0.00 0.00 0.00 88 1021.1
20260507061504 10 148 0.0 0.0 0.00 0.00 0.00 88 1021.3
20260507060008 11 148 0.0 0.0 0.00 0.00 0.00 87 1021.3
20260507054516 11 148 0.0 4.8 0.00 0.00 0.00 87 1021.2
20260507053019 11 167 0.0 0.0 0.00 0.00 0.00 86 1021.3
20260507051522 11 167 0.0 0.0 0.00 0.00 0.00 86 1021.4
20260507050010 11 167 0.0 0.0 0.00 0.00 0.00 86 1021.5
20260507044510 12 167 0.0 0.0 0.00 0.00 0.00 86 1021.4
20260507043016 12 167 0.0 0.0 0.00 0.00 0.00 85 1021.4
20260507041526 12 167 0.0 0.0 0.00 0.00 0.00 85 1021.2
20260507040021 12 167 0.0 0.0 0.00 0.00 0.00 85 1021.3
20260507034508 12 167 0.0 0.0 0.00 0.00 0.00 84 1021.3
20260507033012 12 167 0.0 0.0 0.00 0.00 0.00 84 1021.1
20260507031518 12 167 0.0 0.0 0.00 0.00 0.00 83 1021.0
20260507030028 12 167 0.0 1.6 0.00 0.00 0.00 83 1021.0
20260507024527 12 167 0.0 0.0 0.00 0.00 0.00 82 1020.9
20260507023017 12 167 0.0 0.0 0.00 0.00 0.00 80 1020.9
20260507021514 12 167 0.0 1.6 0.00 0.00 0.00 80 1020.8
20260507020019 13 159 0.0 6.4 0.00 0.00 0.00 80 1020.8
20260507014524 13 165 0.0 3.2 0.00 0.00 0.00 80 1020.8
20260507013023 13 190 0.0 1.6 0.00 0.00 0.00 79 1020.8
20260507011512 13 188 0.0 3.2 0.00 0.00 0.00 79 1020.8
20260507010020 13 200 0.0 1.6 0.00 0.00 0.00 79 1020.9
20260507004523 13 290 0.0 4.8 0.00 0.00 0.00 79 1020.9
20260507003026 13 284 0.0 6.4 0.00 0.00 0.00 79 1021.0
20260507001515 13 325 0.0 9.7 0.00 0.00 0.00 78 1021.0
20260507000016 13 52 0.0 6.4 0.00 0.00 0.00 78 1020.9
20260506234527 13 179 0.0 4.8 0.00 0.00 0.00 78 1021.0
20260506233025 13 136 0.0 12.9 0.00 0.00 0.00 77 1021.0
20260506231527 13 150 0.0 11.3 0.00 0.00 0.00 78 1021.0
20260506230019 13 232 1.6 12.9 0.00 0.00 0.00 79 1021.0
20260506224516 13 114 1.6 11.3 0.00 0.00 0.00 80 1021.1
20260506223022 13 147 0.0 8.0 0.00 0.00 0.00 81 1021.1
20260506221504 13 164 0.0 8.0 0.00 0.00 0.00 81 1021.3
20260506220012 12 264 0.0 11.3 0.00 0.00 0.00 81 1021.2
20260506214515 12 249 0.0 6.4 0.00 0.00 0.00 83 1021.3
20260506213021 12 216 3.2 11.3 0.00 0.00 0.00 84 1021.3
20260506211529 12 227 0.0 4.8 0.00 0.00 0.00 86 1021.4
20260506210006 12 157 3.2 9.7 0.00 0.00 0.00 85 1021.2
20260506204510 12 167 0.0 11.3 0.00 0.00 0.00 85 1021.2
20260506203021 12 220 1.6 6.4 0.00 0.00 0.00 84 1021.2
20260506201529 13 244 1.6 6.4 0.00 0.00 0.00 83 1021.2
20260506200025 13 254 0.0 6.4 0.00 0.00 0.00 82 1020.9
20260506194508 13 245 3.2 11.3 0.00 0.00 0.00 83 1020.8
20260506193012 12 134 0.0 6.4 0.00 0.00 0.00 84 1020.9
20260506191520 12 236 0.0 9.7 0.00 0.00 0.00 85 1020.8
20260506190028 12 230 0.0 11.3 0.00 0.00 0.00 85 1020.8
20260506184527 12 169 0.0 14.5 0.00 0.00 0.00 86 1020.8
20260506183010 12 212 0.0 12.9 0.00 0.00 0.00 87 1020.7
20260506181515 12 259 3.2 6.4 0.00 0.00 0.00 88 1020.8
20260506180025 12 191 0.0 8.0 0.00 0.00 0.00 88 1020.4
20260506174528 12 246 0.0 8.0 0.00 0.00 0.00 89 1020.4
20260506173028 12 142 0.0 4.8 0.00 0.00 0.00 90 1020.6
20260506171522 12 130 1.6 8.0 0.00 0.00 0.00 89 1020.6
20260506170016 12 117 1.6 6.4 0.00 0.00 0.00 90 1020.6
20260506164524 12 146 0.0 4.8 0.00 0.00 0.00 90 1020.3
20260506163027 12 160 0.0 1.6 0.00 0.00 0.00 90 1020.2
20260506161528 12 170 0.0 0.0 0.00 0.00 0.00 90 1020.2
20260506160016 12 170 0.0 1.6 0.00 0.00 0.00 90 1019.9
20260506154521 11 161 0.0 3.2 0.00 0.00 0.00 89 1019.9
20260506153022 11 158 0.0 3.2 0.00 0.00 0.00 90 1020.3
20260506151530 11 159 0.0 4.8 0.00 0.00 0.00 89 1020.1
20260506150030 11 155 0.0 6.4 0.00 0.00 0.00 89 1019.9
20260506144516 11 149 3.2 11.3 0.00 0.00 0.00 89 1019.9
20260506143023 11 154 0.0 0.0 0.00 0.00 0.00 89 1019.8